SCP
0 0 0 0 0 0 0 0 0 0 0 0 -0 0 0 0 0 0 0 -0 -0 0 0 -0 -0 -0 -0 0 -0 0 0 -0 0 -0 -0 -0 -0 -0 -0 -0 -0 -0 -0 -0 -0 -0 -0 -0 -0
0 0 0 0 0 0 0 0 0 0 0 -0 -0 0 0 0 0 0 0 0 -0 0 0 0 0 0 -0 0 -0 -0 -0 -0 0 -0 -0 -0 -0 -0 -0 -0 -0 -0 -0 -0 -0 -0 -0 -0 -0
0 0 0 0 0 0 0 0 0 0 -0 0 0 0 0 0 0 -0 -0 -0 -0 0 0 0 0 0 -0 -0 -0 -0 0 0 -0 -0 -0 -0 -0 -0 -0 -0 -0 -0 -0 -0 -0 -0 -0 -0 -0
0 0 0 0 0 0 0 0 0 0 0 0 0 0 0 0 -0 -0 -0 -0 -0 0 0 0 0 0 0 0 0 0 0 -0 -0 -0 -0 -0 -0 -0 -0 -0 -0 -0 -0 -0 -0 -0 -0 -0 -0
0 0 0 0 0 0 0 0 0 0 0 0 0 0 0 0 -0 -0 -0 -0 -0 0 0 0 0 0 0 0 0 -0 -0 -0 -0 -0 -0 -0 -0 -0 -0 -0 -0 -0 -0 -0 -0 -0 -0 -0 -0
0 0 0 0 0 0 0 0 0 0 0 0 0 0 0 0 -0 -0 0 0 0 -0 0 0 0 0 0 0 0 0 -0 -0 -0 -0 -0 -0 -0 -0 -0 -0 -0 -0 -0 -0 -0 -0 -0 -0 -0
0 0 0 0 0 0 0 0 0 0 0 0 0 0 0 0 0 0 -0 0 0 0 0 0 0 0 0 0 0 0 -0 -0 -0 -0 -0 -0 -0 -0 -0 -0 -0 -0 -0 -0 -0 -0 -0 -0 -0
0 0 0 0 0 0 0 0 0 0 0 0 0 0 0 0 0 0 0 -0 0 0 0 0 0 0 0 0 0 0 0 0 0 -0 -0 -0 -0 -0 -0 -0 -0 -0 -0 -0 -0 0 0 0 -0
0 0 0 0 0 0 0 0 0 0 0 0 0 0 0 -0 -0 0 0 0 0 0 -0 0 0 0 0 0 0 0 0 0 -0 -0 0 0 0 0 -0 -0 -0 -0 -0 -0 0 0 0 0 0
0 0 0 0 0 0 0 0 0 0 0 0 0 0 0 -0 0 -0 0 0 -0 0 -0 0 0 0 -0 0 0 0 0 0 0 0 0 0 0 0 -0 -0 -0 -0 -0 0 0 0 0 0 0
0 0 0 0 0 0 0 0 0 0 0 0 0 0 0 -0 0 -0 -0 -0 -0 -0 0 0 0 0 0 0 0 0 0 0 0 0 0 0 0 0 -0 0 0 0 0 0 0 0 0 0 0
0 0 0 0 0 0 0 0 0 0 0 0 0 0 -0 0 0 -0 -0 -0 -0 0 0 0 0 0 0 0 0 0 0 0 0 0 0 0 0 -0 -0 0 0 0 0 0 0 0 0 0 0
0 0 0 0 0 0 0 0 0 0 0 0 0 0 0 -0 0 -0 -0 -0 -0 -0 0 0 0 0 0 0 0 0 0 0 0 0 0 0 0 0 0 0 0 0 0 0 0 0 0 0 0
0 0 0 0 0 0 0 0 0 0 0 0 0 0 0 0 0 0 -0 -0 -0 -0 0 0 0 0 0 0 0 0 0 0 0 0 0 0 0 0 0 0 0 0 0 0 0 0 0 0 0
0 0 0 -0 0 0 0 0 0 0 0 0 0 0 0 0 0 0 0 0 0 0 0 0 0 0 0 -0 0 0 0 0 0 0 0 0 0 0 0 0 0 0 0 0 0 0 0 0 0
0 0 0 0 -0 0 0 0 0 0 0 0 0 0 0 0 0 0 0 0 0 0 0 0 0 0 0 0 0 0 0 0 0 0 0 0 0 0 0 0 0 0 0 0 0 0 0 0 0
0 0 0 0 0 -0 0 -0 0 0 0 0 0 0 0 0 0 0 0 0 0 0 0 0 0 0 0 0 0 0 0 0 0 0 0 0 0 0 0 0 0 0 0 0 0 0 0 0 0
0 0 0 0 0 -0 0 0 0 0 0 0 0 0 0 0 0 0 0 0 0 0 0 0 0 0 0 0 0 0 0 0 0 0 0 0 0 0 0 0 0 0 0 0 0 0 0 0 0
0 0 0 0 0 0 0 0 0 0 0 0 0 0 0 0 0 0 0 0 0 0 0 0 0 0 0 0 0 0 0 0 0 0 0 0 0 0 0 0 0 0 0 0 0 0 0 0 0
0 0 0 0 0 0 0 -0 0 0 0 0 0 0 0 0 0 0 0 0 0 0 0 0 0 0 0 0 0 0 0 0 0 0 0 0 0 0 0 0 0 0 0 0 0 0 0 0 0
0 0 0 0 0 0 0 -0 -0 -0 0 0 0 0 0 0 0 0 0 0 0 0 0 0 0 0 0 0 0 0 0 0 0 0 0 0 0 0 0 0 0 0 0 0 0 0 0 0 0
0 0 0 0 0 0 0 0 -0 -0 0 0 0 0 0 0 0 0 0 0 0 0 0 0 0 0 0 0 0 0 0 0 0 0 0 0 0 0 0 0 0 0 0 0 0 0 0 0 0
0 0 0 0 0 0 0 0 -0 0 -0 0 0 0 0 0 0 0 0 0 0 0 0 0 0 0 0 0 0 0 0 0 0 0 0 0 0 0 0 0 0 0 0 0 0 0 0 0 0
0 0 0 0 0 0 0 0 0 0 0 0 0 0 0 0 0 0 0 0 0 0 0 0 0 0 0 0 0 0 0 0 0 0 0 0 0 0 0 0 0 0 0 0 0 0 0 0 0
0 0 0 0 0 0 0 0 0 0 0 0 0 0 0 0 0 0 0 0 0 0 0 0 0 0 0 0 0 0 0 0 0 0 0 0 0 0 0 0 0 0 0 0 0 0 0 0 0
0 0 0 0 0 0 0 0 0 0 0 0 0 0 0 0 0 0 0 0 0 0 0 0 0 0 0 0 0 0 0 0 0 0 0 0 0 0 0 0 0 0 0 0 0 0 0 0 0
0 0 0 0 0 0 0 0 0 0 0 0 0 0 0 0 0 0 0 0 0 0 0 0 0 0 0 0 0 0 0 0 0 0 0 0 0 0 0 0 0 0 0 0 0 0 0 0 0
0 0 0 0 0 0 0 0 0 0 0 0 0 0 0 0 0 0 0 0 0 0 0 0 0 0 0 0 0 0 0 0 0 0 0 0 0 0 0 0 0 0 0 0 0 0 0 0 0
0 0 0 0 0 0 0 0 0 -0 -0 0 0 0 0 -0 0 -0 0 0 0 0 0 0 0 0 0 0 0 0 0 0 0 0 0 0 0 0 0 0 0 0 0 0 0 0 0 0 0
0 0 0 0 0 0 0 0 0 0 0 0 0 0 0 0 -0 0 0 0 0 0 0 0 0 0 0 0 0 0 0 0 0 0 0 0 0 0 0 0 0 0 0 0 0 0 0 0 0
Wind_Speed_500mb
10 11 7 4 7 7 1 3 0 5 3 2 11 8 9 7 6 3 29 39 42 36 33 30 21 20 22 21 21 23 25 28 28 28 25 23 23 25 40 35 32 33 35 35 34 32 33 33 33
9 10 5 5 8 4 5 4 9 8 16 27 20 13 5 4 7 18 38 43 41 36 34 24 20 21 23 25 26 28 28 32 31 31 36 31 31 38 39 33 30 31 32 29 36 33 33 32 34
8 9 5 7 5 6 6 7 8 14 23 7 9 9 6 8 12 44 35 48 42 34 28 28 21 21 22 25 29 30 23 27 30 31 38 32 32 34 32 30 30 31 28 30 33 30 32 34 36
4 4 8 7 4 6 6 4 13 25 4 6 14 12 9 4 33 27 46 46 41 35 31 27 22 21 19 21 24 34 28 23 29 31 37 35 26 27 25 25 29 28 28 32 32 30 31 33 34
1 3 6 6 5 5 6 6 30 10 11 10 7 7 8 31 18 30 46 43 38 38 30 26 24 23 20 19 22 25 27 23 26 29 32 29 27 27 24 26 27 28 28 29 29 29 31 32 33
4 5 7 3 6 5 3 18 21 9 11 13 12 16 15 19 24 42 44 42 36 32 32 28 25 23 20 18 21 23 24 23 23 28 29 28 22 24 24 25 25 25 26 27 29 29 28 29 31
10 6 7 5 4 6 8 23 14 14 14 9 19 10 11 26 34 42 43 40 33 32 29 31 31 24 19 20 22 23 25 22 21 24 28 30 25 24 25 26 24 24 24 26 27 27 26 27 29
9 9 7 4 5 7 14 19 9 17 10 13 19 10 12 40 43 45 44 38 32 34 32 29 31 28 22 21 22 25 24 23 23 23 24 24 23 23 24 24 24 22 22 23 24 26 26 27 27
15 7 3 7 9 7 18 10 13 13 19 14 18 6 9 46 51 50 45 42 39 35 32 28 32 30 24 23 24 24 25 24 23 22 20 20 19 19 20 21 23 22 21 21 21 23 23 24 24
9 8 8 2 4 5 12 13 29 13 17 11 17 14 24 52 59 57 55 51 45 41 36 31 34 32 27 24 25 23 23 21 20 19 20 18 16 16 17 18 19 19 18 17 17 18 19 21 22
10 10 6 8 12 14 6 11 23 25 7 24 32 28 48 58 60 56 55 53 47 41 37 36 36 34 27 25 24 22 21 20 20 19 18 16 14 13 13 13 13 13 13 12 13 13 15 15 17
10 12 16 8 14 10 5 12 13 30 15 17 23 28 55 62 61 57 56 50 49 46 41 40 39 37 31 27 25 23 21 18 16 17 16 14 13 11 10 9 9 9 8 8 10 11 13 13 14
8 12 11 6 29 18 15 18 14 35 17 12 28 37 54 61 59 56 51 47 45 46 45 42 40 39 34 29 27 24 21 21 19 15 12 12 11 10 8 7 4 3 5 7 8 9 10 11 14
11 6 8 14 23 20 8 6 10 19 32 20 32 45 55 62 61 59 55 48 44 43 46 45 41 39 38 34 29 25 24 22 20 17 15 13 11 10 6 3 1 2 4 6 7 9 11 13 18
13 7 12 7 10 9 14 6 15 13 32 28 37 48 57 62 63 61 55 51 46 44 41 43 41 38 36 33 30 29 26 24 21 20 20 19 15 13 9 6 3 3 4 6 8 11 16 19 22
9 10 5 4 3 5 1 13 11 23 31 35 39 50 59 58 60 57 54 51 44 45 44 40 40 39 37 34 32 30 28 25 24 23 21 12 9 7 9 7 3 2 4 7 9 14 17 22 28
7 7 9 9 12 3 9 12 6 27 35 38 43 49 55 55 62 59 56 53 49 44 43 44 41 39 36 33 31 28 28 27 24 20 18 14 12 10 7 4 4 6 10 14 15 20 23 26 30
11 13 10 11 7 7 7 16 13 22 36 42 44 48 53 59 61 59 58 56 52 48 45 44 43 41 39 36 35 33 28 24 24 21 20 19 17 14 14 10 11 13 16 20 23 25 25 28 33
22 12 19 4 2 3 11 15 24 18 27 32 41 51 56 59 54 56 57 57 56 56 53 50 48 43 45 46 45 41 39 35 32 29 25 24 22 19 16 16 16 18 20 23 25 24 24 25 28
21 23 15 6 1 7 8 18 24 19 23 47 51 52 61 58 62 59 59 62 64 61 61 59 55 50 47 48 44 43 39 41 35 31 23 27 25 25 23 23 23 24 25 25 26 24 21 20 25
5 29 15 8 0 1 9 24 19 12 33 36 44 53 59 64 69 65 65 67 68 72 70 66 63 59 55 51 49 48 46 42 39 37 30 36 34 32 30 30 30 30 28 28 28 22 18 23 28
16 9 7 9 2 7 12 12 18 11 22 24 56 54 62 66 68 65 68 68 72 73 72 69 66 65 62 60 61 58 50 50 45 43 40 35 38 37 36 35 34 33 32 30 25 22 20 23 28
4 19 9 4 9 6 9 7 13 11 19 22 43 65 64 70 70 71 71 71 68 66 70 69 70 70 68 66 66 63 62 52 49 50 48 39 40 40 38 38 35 32 30 25 22 21 24 21 16
21 16 20 12 8 11 14 14 12 21 16 11 35 71 73 72 74 76 67 66 70 68 70 72 75 74 72 70 70 69 68 63 59 56 52 43 41 42 41 39 35 29 29 25 23 23 18 14 16
26 21 6 5 4 16 10 15 32 12 16 19 29 69 76 74 71 74 74 72 76 79 80 79 79 80 74 72 69 68 70 68 63 58 57 48 40 42 43 39 34 32 29 27 22 17 14 15 17
23 9 10 11 9 8 7 19 12 20 42 26 32 42 45 73 74 75 78 76 80 80 81 77 74 74 72 71 70 68 70 70 66 65 59 50 42 42 42 39 39 35 30 25 20 15 13 14 18
13 14 14 9 2 2 10 15 17 16 15 21 40 34 47 56 61 83 77 80 82 81 81 76 72 71 71 71 71 74 75 75 71 67 62 50 44 45 42 43 37 33 30 25 19 14 13 15 18
10 16 8 3 8 9 9 10 14 6 23 19 21 53 64 56 53 60 67 81 79 78 77 74 72 71 71 73 74 74 76 77 75 68 66 57 51 49 46 43 40 36 31 23 18 13 14 17 18
7 12 6 3 7 7 3 11 14 26 19 16 24 30 42 52 54 57 55 54 64 72 76 74 75 73 71 70 72 75 77 73 70 74 66 56 50 50 45 46 43 37 29 23 18 15 16 15 15
8 13 19 11 10 4 3 17 12 15 14 14 23 20 24 30 34 42 46 50 60 72 74 73 68 64 65 66 68 72 71 71 69 75 68 56 51 47 49 50 44 35 29 23 19 17 16 12 13
Wind_Direction_500mb
327 335 347 320 54 62 106 219 198 122 117 123 127 152 174 86 148 198 148 155 155 150 145 140 129 115 101 98 99 103 103 102 112 125 123 121 115 106 99 99 98 77 85 77 79 72 68 64 60
324 332 356 49 85 72 269 246 190 166 129 115 107 110 65 87 118 147 148 153 155 155 148 144 132 116 110 105 106 100 98 93 105 104 98 102 107 103 102 103 94 93 80 77 75 66 66 67 64
317 340 34 86 95 168 204 219 160 131 131 124 119 89 86 129 139 150 154 151 156 156 153 141 138 120 107 108 108 105 108 92 103 106 105 102 100 100 104 96 94 94 88 77 71 65 63 61 57
328 11 59 86 198 243 197 213 163 140 121 153 135 79 91 184 151 155 156 152 153 153 150 149 145 132 113 108 113 119 113 98 106 109 110 111 107 96 86 76 78 78 77 69 65 62 63 62 57
38 52 62 75 286 270 267 192 158 127 131 141 146 146 90 134 147 158 155 153 156 152 155 156 151 142 123 118 122 127 126 113 108 114 119 107 96 89 90 84 78 76 71 70 68 66 65 63 59
112 103 71 167 249 277 252 164 148 126 144 154 127 123 143 156 154 156 157 156 159 160 159 162 157 153 134 127 124 124 128 128 107 110 113 114 99 91 85 83 82 79 75 68 65 64 64 63 59
115 89 167 185 257 303 191 164 160 154 154 195 150 113 156 167 164 162 158 159 162 165 167 166 157 161 145 130 125 123 128 134 118 107 115 113 103 88 84 87 86 79 73 67 64 65 65 62 59
111 89 115 219 209 262 161 163 182 168 182 160 165 173 177 175 170 170 167 166 165 167 166 169 167 168 156 138 129 125 129 128 129 128 120 116 102 92 89 90 87 83 75 70 66 64 65 62 60
107 69 168 188 167 233 169 160 157 167 150 166 186 180 209 171 173 176 176 170 170 172 171 173 176 172 160 149 144 142 137 133 135 130 121 116 112 102 96 89 84 83 78 69 63 61 61 63 62
126 129 199 237 268 254 201 185 160 156 161 200 188 188 173 173 177 182 182 180 179 178 175 183 182 177 169 164 157 148 138 139 130 130 128 126 116 104 97 89 84 82 83 78 66 56 52 52 53
175 155 90 318 308 272 223 204 175 152 215 209 202 184 171 177 183 190 190 187 177 179 183 187 185 179 180 173 164 157 155 150 148 141 133 123 113 111 104 97 91 83 77 72 65 59 55 54 50
133 149 141 265 325 316 246 183 195 193 198 229 218 205 179 184 188 192 191 184 178 181 184 189 187 182 182 180 177 174 168 164 162 153 143 135 130 123 119 112 96 83 71 61 54 51 49 50 40
148 184 184 275 322 303 263 224 201 220 207 202 198 195 189 191 190 194 193 188 186 186 186 188 188 188 188 189 187 185 185 185 181 170 165 159 158 156 150 135 116 78 43 30 25 27 32 28 17
175 196 277 311 312 307 230 228 208 226 212 200 194 197 195 196 195 195 195 196 196 195 192 189 190 192 195 196 198 198 200 201 197 191 191 193 187 192 190 184 196 5 13 14 10 13 17 10 354
102 83 355 306 292 279 259 172 230 219 199 197 193 200 197 201 203 201 195 200 200 198 203 197 194 197 201 203 204 207 209 213 211 211 209 207 206 213 219 228 256 300 345 1 13 11 345 344 336
92 74 75 306 197 239 146 272 232 207 197 197 194 201 202 208 210 205 202 201 205 203 204 209 205 205 207 206 210 212 215 218 223 225 239 216 221 242 245 229 248 330 7 4 354 330 323 322 320
44 124 206 291 185 196 160 282 290 202 202 208 202 204 206 208 211 209 208 208 209 209 211 211 215 214 218 214 216 224 225 224 232 224 224 231 240 255 260 259 280 301 318 318 315 315 313 313 305
156 180 224 193 170 177 224 255 280 230 210 213 210 210 211 212 211 210 211 211 214 219 220 221 220 222 223 225 224 221 220 224 223 229 239 245 244 258 261 258 270 279 291 293 304 309 313 316 318
151 173 228 170 356 154 231 253 258 226 227 223 214 216 218 217 216 216 217 216 216 220 224 224 224 223 223 222 219 220 225 231 232 239 246 244 250 257 260 252 266 273 284 287 297 303 311 313 314
190 184 206 261 58 177 307 267 258 215 230 226 221 219 222 219 223 220 219 219 220 221 224 226 228 227 227 229 229 229 231 236 241 246 253 254 252 254 256 262 269 276 281 286 295 299 306 310 312
154 203 186 193 187 187 25 277 262 248 242 234 232 232 230 225 226 223 222 220 221 222 223 225 227 228 228 231 232 233 230 231 236 240 241 245 250 253 256 261 267 271 273 282 287 286 294 298 306
199 192 131 115 305 230 171 277 249 228 238 223 224 222 229 229 230 229 228 227 224 225 226 227 228 230 229 233 236 236 240 239 238 240 244 248 247 250 252 255 263 268 273 275 271 265 274 285 304
241 161 155 68 180 314 214 225 266 164 240 240 227 222 228 231 230 230 229 230 231 228 228 228 229 230 232 235 238 238 241 238 241 242 241 250 247 248 252 257 259 262 264 255 248 252 267 286 300
131 72 39 357 59 267 182 211 218 228 220 219 237 230 225 232 232 235 235 234 234 231 229 229 230 230 233 237 238 234 235 238 234 239 241 246 252 252 249 252 254 254 243 239 242 259 261 281 304
126 136 123 146 196 236 271 184 239 240 225 215 218 232 229 231 234 234 234 232 231 228 228 228 230 232 232 234 235 232 230 233 239 241 244 242 252 253 251 251 249 239 238 243 237 240 266 294 311
164 153 143 175 207 263 351 228 260 212 233 234 246 250 239 238 234 235 236 235 233 228 226 227 229 232 232 232 234 233 232 231 231 241 245 241 249 255 248 242 240 236 231 219 225 243 268 294 309
164 211 147 124 81 16 214 292 298 256 264 240 236 240 243 245 242 238 237 236 234 228 226 226 228 230 231 233 233 233 233 231 230 236 235 234 240 249 238 239 230 221 214 218 230 247 273 293 303
148 142 192 83 199 250 279 276 244 336 242 225 226 237 248 248 247 248 247 242 236 230 227 226 228 230 232 234 236 236 236 233 228 229 228 236 240 249 230 228 218 211 216 224 233 248 276 290 304
133 157 94 47 205 187 282 258 221 225 220 235 249 251 256 270 269 264 260 252 236 229 226 227 228 229 232 236 238 238 235 232 227 220 223 223 233 247 218 218 209 211 218 225 235 253 269 286 306
195 181 172 185 196 248 134 261 248 229 237 264 271 287 292 288 283 269 264 253 234 226 225 227 230 234 238 240 237 233 227 223 220 220 227 219 232 227 213 209 208 212 219 225 237 252 264 286 314
Wind_Speed_850mb
10 11 7 4 7 7 1 3 0 5 3 2 11 8 9 7 6 3 29 39 42 36 33 30 21 20 22 21 21 23 25 28 28 28 25 23 23 25 40 35 32 33 35 35 34 32 33 33 33
9 10 5 5 8 4 5 4 9 8 16 27 20 13 5 4 7 18 38 43 41 36 34 24 20 21 23 25 26 28 28 32 31 31 36 31 31 38 39 33 30 31 32 29 36 33 33 32 34
8 9 5 7 5 6 6 7 8 14 23 7 9 9 6 8 12 44 35 48 42 34 28 28 21 21 22 25 29 30 23 27 30 31 38 32 32 34 32 30 30 31 28 30 33 30 32 34 36
4 4 8 7 4 6 6 4 13 25 4 6 14 12 9 4 33 27 46 46 41 35 31 27 22 21 19 21 24 34 28 23 29 31 37 35 26 27 25 25 29 28 28 32 32 30 31 33 34
1 3 6 6 5 5 6 6 30 10 11 10 7 7 8 31 18 30 46 43 38 38 30 26 24 23 20 19 22 25 27 23 26 29 32 29 27 27 24 26 27 28 28 29 29 29 31 32 33
4 5 7 3 6 5 3 18 21 9 11 13 12 16 15 19 24 42 44 42 36 32 32 28 25 23 20 18 21 23 24 23 23 28 29 28 22 24 24 25 25 25 26 27 29 29 28 29 31
10 6 7 5 4 6 8 23 14 14 14 9 19 10 11 26 34 42 43 40 33 32 29 31 31 24 19 20 22 23 25 22 21 24 28 30 25 24 25 26 24 24 24 26 27 27 26 27 29
9 9 7 4 5 7 14 19 9 17 10 13 19 10 12 40 43 45 44 38 32 34 32 29 31 28 22 21 22 25 24 23 23 23 24 24 23 23 24 24 24 22 22 23 24 26 26 27 27
15 7 3 7 9 7 18 10 13 13 19 14 18 6 9 46 51 50 45 42 39 35 32 28 32 30 24 23 24 24 25 24 23 22 20 20 19 19 20 21 23 22 21 21 21 23 23 24 24
9 8 8 2 4 5 12 13 29 13 17 11 17 14 24 52 59 57 55 51 45 41 36 31 34 32 27 24 25 23 23 21 20 19 20 18 16 16 17 18 19 19 18 17 17 18 19 21 22
10 10 6 8 12 14 6 11 23 25 7 24 32 28 48 58 60 56 55 53 47 41 37 36 36 34 27 25 24 22 21 20 20 19 18 16 14 13 13 13 13 13 13 12 13 13 15 15 17
10 12 16 8 14 10 5 12 13 30 15 17 23 28 55 62 61 57 56 50 49 46 41 40 39 37 31 27 25 23 21 18 16 17 16 14 13 11 10 9 9 9 8 8 10 11 13 13 14
8 12 11 6 29 18 15 18 14 35 17 12 28 37 54 61 59 56 51 47 45 46 45 42 40 39 34 29 27 24 21 21 19 15 12 12 11 10 8 7 4 3 5 7 8 9 10 11 14
11 6 8 14 23 20 8 6 10 19 32 20 32 45 55 62 61 59 55 48 44 43 46 45 41 39 38 34 29 25 24 22 20 17 15 13 11 10 6 3 1 2 4 6 7 9 11 13 18
13 7 12 7 10 9 14 6 15 13 32 28 37 48 57 62 63 61 55 51 46 44 41 43 41 38 36 33 30 29 26 24 21 20 20 19 15 13 9 6 3 3 4 6 8 11 16 19 22
9 10 5 4 3 5 1 13 11 23 31 35 39 50 59 58 60 57 54 51 44 45 44 40 40 39 37 34 32 30 28 25 24 23 21 12 9 7 9 7 3 2 4 7 9 14 17 22 28
7 7 9 9 12 3 9 12 6 27 35 38 43 49 55 55 62 59 56 53 49 44 43 44 41 39 36 33 31 28 28 27 24 20 18 14 12 10 7 4 4 6 10 14 15 20 23 26 30
11 13 10 11 7 7 7 16 13 22 36 42 44 48 53 59 61 59 58 56 52 48 45 44 43 41 39 36 35 33 28 24 24 21 20 19 17 14 14 10 11 13 16 20 23 25 25 28 33
22 12 19 4 2 3 11 15 24 18 27 32 41 51 56 59 54 56 57 57 56 56 53 50 48 43 45 46 45 41 39 35 32 29 25 24 22 19 16 16 16 18 20 23 25 24 24 25 28
21 23 15 6 1 7 8 18 24 19 23 47 51 52 61 58 62 59 59 62 64 61 61 59 55 50 47 48 44 43 39 41 35 31 23 27 25 25 23 23 23 24 25 25 26 24 21 20 25
5 29 15 8 0 1 9 24 19 12 33 36 44 53 59 64 69 65 65 67 68 72 70 66 63 59 55 51 49 48 46 42 39 37 30 36 34 32 30 30 30 30 28 28 28 22 18 23 28
16 9 7 9 2 7 12 12 18 11 22 24 56 54 62 66 68 65 68 68 72 73 72 69 66 65 62 60 61 58 50 50 45 43 40 35 38 37 36 35 34 33 32 30 25 22 20 23 28
4 19 9 4 9 6 9 7 13 11 19 22 43 65 64 70 70 71 71 71 68 66 70 69 70 70 68 66 66 63 62 52 49 50 48 39 40 40 38 38 35 32 30 25 22 21 24 21 16
21 16 20 12 8 11 14 14 12 21 16 11 35 71 73 72 74 76 67 66 70 68 70 72 75 74 72 70 70 69 68 63 59 56 52 43 41 42 41 39 35 29 29 25 23 23 18 14 16
26 21 6 5 4 16 10 15 32 12 16 19 29 69 76 74 71 74 74 72 76 79 80 79 79 80 74 72 69 68 70 68 63 58 57 48 40 42 43 39 34 32 29 27 22 17 14 15 17
23 9 10 11 9 8 7 19 12 20 42 26 32 42 45 73 74 75 78 76 80 80 81 77 74 74 72 71 70 68 70 70 66 65 59 50 42 42 42 39 39 35 30 25 20 15 13 14 18
13 14 14 9 2 2 10 15 17 16 15 21 40 34 47 56 61 83 77 80 82 81 81 76 72 71 71 71 71 74 75 75 71 67 62 50 44 45 42 43 37 33 30 25 19 14 13 15 18
10 16 8 3 8 9 9 10 14 6 23 19 21 53 64 56 53 60 67 81 79 78 77 74 72 71 71 73 74 74 76 77 75 68 66 57 51 49 46 43 40 36 31 23 18 13 14 17 18
7 12 6 3 7 7 3 11 14 26 19 16 24 30 42 52 54 57 55 54 64 72 76 74 75 73 71 70 72 75 77 73 70 74 66 56 50 50 45 46 43 37 29 23 18 15 16 15 15
8 13 19 11 10 4 3 17 12 15 14 14 23 20 24 30 34 42 46 50 60 72 74 73 68 64 65 66 68 72 71 71 69 75 68 56 51 47 49 50 44 35 29 23 19 17 16 12 13
Wind_Direction_850mb
327 335 347 320 54 62 106 219 198 122 117 123 127 152 174 86 148 198 148 155 155 150 145 140 129 115 101 98 99 103 103 102 112 125 123 121 115 106 99 99 98 77 85 77 79 72 68 64 60
324 332 356 49 85 72 269 246 190 166 129 115 107 110 65 87 118 147 148 153 155 155 148 144 132 116 110 105 106 100 98 93 105 104 98 102 107 103 102 103 94 93 80 77 75 66 66 67 64
317 340 34 86 95 168 204 219 160 131 131 124 119 89 86 129 139 150 154 151 156 156 153 141 138 120 107 108 108 105 108 92 103 106 105 102 100 100 104 96 94 94 88 77 71 65 63 61 57
328 11 59 86 198 243 197 213 163 140 121 153 135 79 91 184 151 155 156 152 153 153 150 149 145 132 113 108 113 119 113 98 106 109 110 111 107 96 86 76 78 78 77 69 65 62 63 62 57
38 52 62 75 286 270 267 192 158 127 131 141 146 146 90 134 147 158 155 153 156 152 155 156 151 142 123 118 122 127 126 113 108 114 119 107 96 89 90 84 78 76 71 70 68 66 65 63 59
112 103 71 167 249 277 252 164 148 126 144 154 127 123 143 156 154 156 157 156 159 160 159 162 157 153 134 127 124 124 128 128 107 110 113 114 99 91 85 83 82 79 75 68 65 64 64 63 59
115 89 167 185 257 303 191 164 160 154 154 195 150 113 156 167 164 162 158 159 162 165 167 166 157 161 145 130 125 123 128 134 118 107 115 113 103 88 84 87 86 79 73 67 64 65 65 62 59
111 89 115 219 209 262 161 163 182 168 182 160 165 173 177 175 170 170 167 166 165 167 166 169 167 168 156 138 129 125 129 128 129 128 120 116 102 92 89 90 87 83 75 70 66 64 65 62 60
107 69 168 188 167 233 169 160 157 167 150 166 186 180 209 171 173 176 176 170 170 172 171 173 176 172 160 149 144 142 137 133 135 130 121 116 112 102 96 89 84 83 78 69 63 61 61 63 62
126 129 199 237 268 254 201 185 160 156 161 200 188 188 173 173 177 182 182 180 179 178 175 183 182 177 169 164 157 148 138 139 130 130 128 126 116 104 97 89 84 82 83 78 66 56 52 52 53
175 155 90 318 308 272 223 204 175 152 215 209 202 184 171 177 183 190 190 187 177 179 183 187 185 179 180 173 164 157 155 150 148 141 133 123 113 111 104 97 91 83 77 72 65 59 55 54 50
133 149 141 265 325 316 246 183 195 193 198 229 218 205 179 184 188 192 191 184 178 181 184 189 187 182 182 180 177 174 168 164 162 153 143 135 130 123 119 112 96 83 71 61 54 51 49 50 40
148 184 184 275 322 303 263 224 201 220 207 202 198 195 189 191 190 194 193 188 186 186 186 188 188 188 188 189 187 185 185 185 181 170 165 159 158 156 150 135 116 78 43 30 25 27 32 28 17
175 196 277 311 312 307 230 228 208 226 212 200 194 197 195 196 195 195 195 196 196 195 192 189 190 192 195 196 198 198 200 201 197 191 191 193 187 192 190 184 196 5 13 14 10 13 17 10 354
102 83 355 306 292 279 259 172 230 219 199 197 193 200 197 201 203 201 195 200 200 198 203 197 194 197 201 203 204 207 209 213 211 211 209 207 206 213 219 228 256 300 345 1 13 11 345 344 336
92 74 75 306 197 239 146 272 232 207 197 197 194 201 202 208 210 205 202 201 205 203 204 209 205 205 207 206 210 212 215 218 223 225 239 216 221 242 245 229 248 330 7 4 354 330 323 322 320
44 124 206 291 185 196 160 282 290 202 202 208 202 204 206 208 211 209 208 208 209 209 211 211 215 214 218 214 216 224 225 224 232 224 224 231 240 255 260 259 280 301 318 318 315 315 313 313 305
156 180 224 193 170 177 224 255 280 230 210 213 210 210 211 212 211 210 211 211 214 219 220 221 220 222 223 225 224 221 220 224 223 229 239 245 244 258 261 258 270 279 291 293 304 309 313 316 318
151 173 228 170 356 154 231 253 258 226 227 223 214 216 218 217 216 216 217 216 216 220 224 224 224 223 223 222 219 220 225 231 232 239 246 244 250 257 260 252 266 273 284 287 297 303 311 313 314
190 184 206 261 58 177 307 267 258 215 230 226 221 219 222 219 223 220 219 219 220 221 224 226 228 227 227 229 229 229 231 236 241 246 253 254 252 254 256 262 269 276 281 286 295 299 306 310 312
154 203 186 193 187 187 25 277 262 248 242 234 232 232 230 225 226 223 222 220 221 222 223 225 227 228 228 231 232 233 230 231 236 240 241 245 250 253 256 261 267 271 273 282 287 286 294 298 306
199 192 131 115 305 230 171 277 249 228 238 223 224 222 229 229 230 229 228 227 224 225 226 227 228 230 229 233 236 236 240 239 238 240 244 248 247 250 252 255 263 268 273 275 271 265 274 285 304
241 161 155 68 180 314 214 225 266 164 240 240 227 222 228 231 230 230 229 230 231 228 228 228 229 230 232 235 238 238 241 238 241 242 241 250 247 248 252 257 259 262 264 255 248 252 267 286 300
131 72 39 357 59 267 182 211 218 228 220 219 237 230 225 232 232 235 235 234 234 231 229 229 230 230 233 237 238 234 235 238 234 239 241 246 252 252 249 252 254 254 243 239 242 259 261 281 304
126 136 123 146 196 236 271 184 239 240 225 215 218 232 229 231 234 234 234 232 231 228 228 228 230 232 232 234 235 232 230 233 239 241 244 242 252 253 251 251 249 239 238 243 237 240 266 294 311
164 153 143 175 207 263 351 228 260 212 233 234 246 250 239 238 234 235 236 235 233 228 226 227 229 232 232 232 234 233 232 231 231 241 245 241 249 255 248 242 240 236 231 219 225 243 268 294 309
164 211 147 124 81 16 214 292 298 256 264 240 236 240 243 245 242 238 237 236 234 228 226 226 228 230 231 233 233 233 233 231 230 236 235 234 240 249 238 239 230 221 214 218 230 247 273 293 303
148 142 192 83 199 250 279 276 244 336 242 225 226 237 248 248 247 248 247 242 236 230 227 226 228 230 232 234 236 236 236 233 228 229 228 236 240 249 230 228 218 211 216 224 233 248 276 290 304
133 157 94 47 205 187 282 258 221 225 220 235 249 251 256 270 269 264 260 252 236 229 226 227 228 229 232 236 238 238 235 232 227 220 223 223 233 247 218 218 209 211 218 225 235 253 269 286 306
195 181 172 185 196 248 134 261 248 229 237 264 271 287 292 288 283 269 264 253 234 226 225 227 230 234 238 240 237 233 227 223 220 220 227 219 232 227 213 209 208 212 219 225 237 252 264 286 314